Hourly Weather Kozlowki

Today, 26 October, Monday

Time Temperature Precipitation Wind Pressure Humidity
00:00 +11°C° 0 mm 4 mps 741 mmHg 90%
01:00 +11°C° 0 mm 4 mps 741 mmHg 91%
02:00 +11°C° 0 mm 4 mps 741 mmHg 91%
03:00 +11°C° 0 mm 4 mps 741 mmHg 91%
04:00 +11°C° 0 mm 4 mps 740 mmHg 92%
05:00 +11°C° 0 mm 4 mps 740 mmHg 91%
06:00 +11°C° 0 mm 4 mps 740 mmHg 90%
07:00 +11°C° 0 mm 4 mps 740 mmHg 90%
08:00 +13°C° 0 mm 5 mps 740 mmHg 83%
09:00 +14°C° 0 mm 6 mps 740 mmHg 76%
10:00 +16°C° 0 mm 7 mps 740 mmHg 68%
11:00 +16°C° 0 mm 7 mps 740 mmHg 67%
12:00 +17°C° 0 mm 7 mps 740 mmHg 65%
13:00 +17°C° 0 mm 8 mps 740 mmHg 64%
14:00 +16°C° 0 mm 7 mps 739 mmHg 67%
15:00 +15°C° 0 mm 6 mps 739 mmHg 71%
16:00 +14°C° 0 mm 6 mps 739 mmHg 75%
17:00 +14°C° 0 mm 6 mps 739 mmHg 76%
18:00 +14°C° 0 mm 6 mps 740 mmHg 77%
19:00 +14°C° 0 mm 6 mps 740 mmHg 78%
20:00 +14°C° 0 mm 6 mps 740 mmHg 79%
21:00 +14°C° 0 mm 6 mps 740 mmHg 79%
22:00 +14°C° 0 mm 6 mps 740 mmHg 80%
23:00 +14°C° 0 mm 5 mps 740 mmHg 80%

Tomorrow, 27 October, Tuesday

Time Temperature Precipitation Wind Pressure Humidity
00:00 +13°C° 0 mm 5 mps 740 mmHg 81%
01:00 +13°C° 0 mm 5 mps 740 mmHg 81%
02:00 +13°C° 0 mm 5 mps 740 mmHg 82%
03:00 +13°C° 0 mm 5 mps 740 mmHg 83%
04:00 +12°C° 0 mm 4 mps 740 mmHg 84%
05:00 +12°C° 0 mm 4 mps 740 mmHg 85%
06:00 +12°C° 0 mm 4 mps 740 mmHg 86%
07:00 +12°C° 0 mm 4 mps 741 mmHg 86%
08:00 +13°C° 0 mm 4 mps 741 mmHg 79%
09:00 +15°C° 0 mm 5 mps 741 mmHg 71%
10:00 +17°C° 0 mm 5 mps 741 mmHg 63%
11:00 +19°C° 0 mm 5 mps 741 mmHg 61%
12:00 +19°C° 0 mm 5 mps 741 mmHg 58%
13:00 +20°C° 0 mm 5 mps 741 mmHg 56%
14:00 +17°C° 0 mm 5 mps 741 mmHg 61%
15:00 +17°C° 0 mm 4 mps 741 mmHg 65%
16:00 +15°C° 0 mm 4 mps 741 mmHg 70%
17:00 +14°C° 0 mm 4 mps 741 mmHg 73%
18:00 +14°C° 0 mm 3 mps 741 mmHg 75%
19:00 +13°C° 0 mm 3 mps 741 mmHg 78%
20:00 +13°C° 0 mm 3 mps 741 mmHg 79%
21:00 +12°C° 0 mm 3 mps 741 mmHg 80%
22:00 +12°C° 0 mm 3 mps 742 mmHg 82%
23:00 +13°C° 0 mm 2 mps 742 mmHg 83%

Day after tomorrow, 28 October, Wednesday

Time Temperature Precipitation Wind Pressure Humidity
00:00 +12°C° 0 mm 2 mps 742 mmHg 84%
01:00 +12°C° 0 mm 2 mps 742 mmHg 85%
02:00 +12°C° 0 mm 2 mps 742 mmHg 86%
03:00 +11°C° 0 mm 1 mps 742 mmHg 87%
04:00 +11°C° 0 mm 1 mps 742 mmHg 88%
05:00 +11°C° 0 mm 1 mps 743 mmHg 89%
06:00 +11°C° 0 mm 1 mps 743 mmHg 90%
07:00 +10°C° 0 mm 0 mps 743 mmHg 91%
08:00 +11°C° 0 mm 0 mps 743 mmHg 85%
09:00 +13°C° 0 mm 0 mps 743 mmHg 80%
10:00 +14°C° 0 mm 0 mps 743 mmHg 75%
11:00 +16°C° 0 mm 1 mps 743 mmHg 72%
12:00 +18°C° 0 mm 1 mps 743 mmHg 68%
13:00 +18°C° 0 mm 1 mps 743 mmHg 65%
14:00 +16°C° 0 mm 1 mps 743 mmHg 69%
15:00 +16°C° 0 mm 1 mps 743 mmHg 73%
16:00 +15°C° 0 mm 1 mps 743 mmHg 76%
17:00 +14°C° 0 mm 1 mps 743 mmHg 79%
18:00 +13°C° 0 mm 1 mps 743 mmHg 82%
19:00 +13°C° 0 mm 1 mps 743 mmHg 85%
20:00 +12°C° 0 mm 1 mps 743 mmHg 86%
21:00 +12°C° 0 mm 1 mps 743 mmHg 87%
22:00 +12°C° 0 mm 1 mps 744 mmHg 88%
23:00 +12°C° 0 mm 1 mps 744 mmHg 89%

29 October, Thursday

Time Temperature Precipitation Wind Pressure Humidity
00:00 +11°C° 0 mm 1 mps 744 mmHg 90%
01:00 +11°C° 0 mm 1 mps 744 mmHg 90%
02:00 +11°C° 0 mm 1 mps 744 mmHg 91%
03:00 +11°C° 0 mm 1 mps 744 mmHg 92%
04:00 +10°C° 0 mm 1 mps 744 mmHg 93%
05:00 +10°C° 0 mm 1 mps 744 mmHg 93%
06:00 +10°C° 0 mm 1 mps 744 mmHg 93%
07:00 +10°C° 0 mm 1 mps 745 mmHg 93%
08:00 +12°C° 0 mm 1 mps 745 mmHg 87%
09:00 +13°C° 0 mm 1 mps 745 mmHg 81%
10:00 +15°C° 0 mm 1 mps 745 mmHg 75%
11:00 +15°C° 0 mm 2 mps 745 mmHg 71%
12:00 +16°C° 0 mm 2 mps 745 mmHg 66%
13:00 +17°C° 0 mm 2 mps 745 mmHg 62%
14:00 +16°C° 0 mm 2 mps 745 mmHg 65%
15:00 +15°C° 0 mm 2 mps 745 mmHg 68%
16:00 +15°C° 0 mm 1 mps 745 mmHg 71%
17:00 +14°C° 0 mm 2 mps 746 mmHg 72%
18:00 +13°C° 0 mm 2 mps 746 mmHg 73%
19:00 +12°C° 0 mm 2 mps 747 mmHg 74%
20:00 +13°C° 0 mm 2 mps 747 mmHg 73%
21:00 +13°C° 0 mm 2 mps 747 mmHg 73%
22:00 +13°C° 0 mm 2 mps 748 mmHg 72%
23:00 +12°C° 0 mm 2 mps 748 mmHg 75%

30 October, Friday

Time Temperature Precipitation Wind Pressure Humidity
00:00 +12°C° 0 mm 2 mps 748 mmHg 78%
01:00 +10°C° 0 mm 2 mps 748 mmHg 81%
02:00 +10°C° 0 mm 2 mps 748 mmHg 82%
03:00 +9°C° 0 mm 2 mps 748 mmHg 83%
04:00 +9°C° 0 mm 2 mps 749 mmHg 84%
05:00 +9°C° 0 mm 2 mps 749 mmHg 83%
06:00 +9°C° 0 mm 2 mps 749 mmHg 82%
07:00 +9°C° 0 mm 3 mps 749 mmHg 80%
08:00 +11°C° 0 mm 3 mps 749 mmHg 73%
09:00 +12°C° 0 mm 4 mps 749 mmHg 65%
10:00 +14°C° 0 mm 4 mps 749 mmHg 58%
11:00 +15°C° 0 mm 4 mps 749 mmHg 58%
12:00 +15°C° 0 mm 4 mps 749 mmHg 58%
13:00 +17°C° 0 mm 4 mps 749 mmHg 57%
14:00 +15°C° 0 mm 4 mps 749 mmHg 63%
15:00 +14°C° 0 mm 3 mps 749 mmHg 68%
16:00 +14°C° 0 mm 2 mps 749 mmHg 73%
17:00 +13°C° 0 mm 2 mps 749 mmHg 76%
18:00 +12°C° 0 mm 3 mps 749 mmHg 79%
19:00 +11°C° 0 mm 3 mps 749 mmHg 82%
20:00 +11°C° 0 mm 3 mps 749 mmHg 82%
21:00 +11°C° 0 mm 3 mps 749 mmHg 82%
22:00 +11°C° 0 mm 3 mps 749 mmHg 82%
23:00 +11°C° 0 mm 3 mps 749 mmHg 83%

31 October, Saturday

Time Temperature Precipitation Wind Pressure Humidity
00:00 +10°C° 0 mm 2 mps 749 mmHg 83%
01:00 +10°C° 0 mm 2 mps 749 mmHg 84%
02:00 +10°C° 0 mm 2 mps 749 mmHg 85%
03:00 +10°C° 0 mm 2 mps 749 mmHg 86%
04:00 +9°C° 0 mm 2 mps 749 mmHg 88%
05:00 +9°C° 0 mm 2 mps 749 mmHg 88%
06:00 +9°C° 0 mm 2 mps 749 mmHg 88%
07:00 +9°C° 0 mm 2 mps 749 mmHg 88%
Show more